TimeCDT,TemperatureF,Dew PointF,Humidity,Sea Level PressureIn,VisibilityMPH,Wind Direction,Wind SpeedMPH,Gust SpeedMPH,PrecipitationIn,Events,Conditions,WindDirDegrees,DateUTC
12:15 AM,59.9,56.7,89,29.95,10.0,SSE,4.6,-,N/A,,Clear,160,2012-10-22 05:15:00
12:35 AM,60.8,57.2,88,29.95,10.0,SSE,4.6,-,N/A,,Clear,160,2012-10-22 05:35:00
12:55 AM,59.9,57.2,91,29.95,10.0,SSE,4.6,-,N/A,,Clear,160,2012-10-22 05:55:00
1:15 AM,59.4,56.8,91,29.95,10.0,SE,3.5,-,N/A,,Clear,140,2012-10-22 06:15:00
1:35 AM,59.9,57.6,92,29.95,10.0,Calm,Calm,-,N/A,,Mostly Cloudy,0,2012-10-22 06:35:00
1:55 AM,60.8,58.5,92,29.94,10.0,Calm,Calm,-,N/A,,Overcast,0,2012-10-22 06:55:00
2:15 AM,61.7,59.4,92,29.94,10.0,SSE,4.6,-,N/A,,Overcast,160,2012-10-22 07:15:00
2:35 AM,63.9,60.8,90,29.94,10.0,South,8.1,-,N/A,,Mostly Cloudy,180,2012-10-22 07:35:00
2:55 AM,65.8,61.2,85,29.93,10.0,South,9.2,-,N/A,,Overcast,170,2012-10-22 07:55:00
3:15 AM,65.7,61.0,85,29.93,10.0,South,9.2,-,N/A,,Overcast,180,2012-10-22 08:15:00
3:35 AM,66.2,60.8,83,29.92,10.0,South,10.4,-,N/A,,Overcast,180,2012-10-22 08:35:00
3:55 AM,65.5,60.4,84,29.92,10.0,South,9.2,-,N/A,,Overcast,180,2012-10-22 08:55:00
4:15 AM,65.1,59.5,82,29.92,10.0,South,10.4,-,N/A,,Mostly Cloudy,180,2012-10-22 09:15:00
4:35 AM,64.9,59.4,82,29.91,10.0,South,10.4,-,N/A,,Mostly Cloudy,180,2012-10-22 09:35:00
4:55 AM,65.5,59.5,81,29.92,10.0,South,9.2,-,N/A,,Overcast,180,2012-10-22 09:55:00
5:15 AM,65.8,59.4,80,29.92,10.0,South,9.2,-,N/A,,Overcast,190,2012-10-22 10:15:00
5:35 AM,65.5,59.0,80,29.94,10.0,South,8.1,-,N/A,,Overcast,180,2012-10-22 10:35:00
5:55 AM,65.7,58.8,79,29.93,10.0,South,10.4,-,N/A,,Overcast,180,2012-10-22 10:55:00
6:15 AM,66.2,58.3,76,29.92,10.0,South,10.4,-,N/A,,Overcast,180,2012-10-22 11:15:00
6:35 AM,65.5,57.6,76,29.92,10.0,South,10.4,-,N/A,,Mostly Cloudy,180,2012-10-22 11:35:00
6:55 AM,65.1,57.2,75,29.92,10.0,South,9.2,-,N/A,,Scattered Clouds,180,2012-10-22 11:55:00
7:15 AM,64.4,56.1,74,29.92,10.0,South,11.5,-,N/A,,Clear,180,2012-10-22 12:15:00
7:35 AM,64.0,55.4,73,29.93,10.0,South,9.2,-,N/A,,Clear,190,2012-10-22 12:35:00
7:55 AM,63.9,55.2,73,29.93,10.0,South,10.4,-,N/A,,Clear,180,2012-10-22 12:55:00
8:15 AM,64.4,54.9,71,29.92,10.0,South,9.2,-,N/A,,Clear,170,2012-10-22 13:15:00
8:35 AM,64.6,54.7,70,29.94,10.0,South,10.4,-,N/A,,Scattered Clouds,190,2012-10-22 13:35:00
8:55 AM,64.4,54.9,71,29.94,10.0,South,10.4,-,N/A,,Overcast,180,2012-10-22 13:55:00
9:15 AM,64.4,54.7,71,29.94,10.0,South,4.6,-,N/A,Rain-Thunderstorm,Light Thunderstorms and Rain,190,2012-10-22 14:15:00
9:35 AM,63.5,55.9,76,30.01,7.0,West,3.5,19.6,N/A,Rain-Thunderstorm,Thunderstorms and Rain,280,2012-10-22 14:35:00
9:55 AM,60.3,57.7,91,29.99,1.8,ESE,8.1,-,N/A,Rain-Thunderstorm,Heavy Thunderstorms and Rain,110,2012-10-22 14:55:00
10:15 AM,59.7,57.9,94,29.96,3.0,SE,5.8,-,N/A,Rain-Thunderstorm,Light Thunderstorms and Rain,130,2012-10-22 15:15:00
10:35 AM,59.9,58.1,94,29.97,2.0,SE,5.8,-,N/A,Rain-Thunderstorm,Heavy Thunderstorms and Rain,140,2012-10-22 15:35:00
10:55 AM,59.9,58.1,94,29.96,10.0,SE,9.2,-,N/A,Rain-Thunderstorm,Light Thunderstorms and Rain,130,2012-10-22 15:55:00
11:15 AM,60.1,58.3,94,29.95,10.0,SSE,11.5,16.1,N/A,Rain,Light Rain,150,2012-10-22 16:15:00
11:35 AM,60.6,58.5,93,29.95,10.0,SE,9.2,-,N/A,,Overcast,140,2012-10-22 16:35:00
11:55 AM,61.0,59.0,93,29.97,10.0,SE,10.4,-,N/A,,Overcast,140,2012-10-22 16:55:00
12:15 PM,61.3,59.0,92,29.96,7.0,SE,11.5,-,N/A,,Drizzle,140,2012-10-22 17:15:00
12:35 PM,61.9,60.1,94,29.94,3.0,SSE,10.4,-,N/A,,Drizzle,150,2012-10-22 17:35:00
12:55 PM,62.6,61.0,94,29.94,5.0,SSE,10.4,16.1,N/A,,Overcast,160,2012-10-22 17:55:00
1:15 PM,63.5,62.2,96,29.93,7.0,SSE,11.5,16.1,N/A,,Overcast,160,2012-10-22 18:15:00
1:35 PM,64.6,63.0,94,29.91,7.0,SSE,15.0,-,N/A,,Overcast,160,2012-10-22 18:35:00
1:55 PM,65.5,62.8,91,29.91,10.0,SSE,16.1,20.7,N/A,,Overcast,160,2012-10-22 18:55:00
2:15 PM,66.6,63.5,90,29.90,10.0,South,16.1,20.7,N/A,,Overcast,170,2012-10-22 19:15:00
2:35 PM,66.9,63.5,89,29.89,10.0,South,18.4,23.0,N/A,,Overcast,180,2012-10-22 19:35:00
2:55 PM,66.7,63.7,90,29.89,10.0,South,16.1,20.7,N/A,,Overcast,180,2012-10-22 19:55:00
3:15 PM,66.7,63.7,90,29.90,10.0,South,16.1,-,N/A,,Overcast,180,2012-10-22 20:15:00
3:35 PM,67.3,64.0,89,29.90,10.0,South,16.1,-,N/A,,Overcast,180,2012-10-22 20:35:00
3:55 PM,68.4,64.4,87,29.89,10.0,South,15.0,-,N/A,,Overcast,180,2012-10-22 20:55:00
4:15 PM,68.5,63.9,85,29.89,10.0,South,19.6,-,N/A,,Overcast,180,2012-10-22 21:15:00
4:35 PM,68.5,63.5,84,29.89,10.0,South,12.7,-,N/A,,Mostly Cloudy,180,2012-10-22 21:35:00
4:55 PM,68.5,63.7,84,29.90,10.0,South,10.4,17.3,N/A,,Overcast,190,2012-10-22 21:55:00
5:15 PM,68.9,63.7,83,29.90,10.0,South,9.2,-,N/A,,Overcast,190,2012-10-22 22:15:00
5:35 PM,68.9,63.5,83,29.90,10.0,South,10.4,-,N/A,,Mostly Cloudy,190,2012-10-22 22:35:00
5:55 PM,68.9,63.7,83,29.91,10.0,SSW,6.9,-,N/A,,Mostly Cloudy,200,2012-10-22 22:55:00
6:15 PM,68.0,63.5,85,29.91,10.0,South,5.8,-,N/A,,Mostly Cloudy,190,2012-10-22 23:15:00
6:35 PM,67.6,63.5,87,29.91,10.0,SSW,5.8,-,N/A,,Scattered Clouds,200,2012-10-22 23:35:00
6:55 PM,67.6,63.5,87,29.91,10.0,South,3.5,-,N/A,,Mostly Cloudy,190,2012-10-22 23:55:00
7:15 PM,68.0,63.5,85,29.91,10.0,South,4.6,-,N/A,,Mostly Cloudy,190,2012-10-23 00:15:00
7:35 PM,68.7,63.5,83,29.90,10.0,South,9.2,-,N/A,,Mostly Cloudy,180,2012-10-23 00:35:00
7:55 PM,68.4,63.5,84,29.91,10.0,South,5.8,-,N/A,,Mostly Cloudy,190,2012-10-23 00:55:00
8:15 PM,68.5,63.0,82,29.91,10.0,South,8.1,-,N/A,,Mostly Cloudy,190,2012-10-23 01:15:00
8:35 PM,68.0,62.6,83,29.90,10.0,South,9.2,-,N/A,,Scattered Clouds,180,2012-10-23 01:35:00
8:55 PM,68.4,62.6,82,29.91,10.0,South,6.9,-,N/A,,Clear,180,2012-10-23 01:55:00
9:15 PM,67.5,62.1,83,29.91,10.0,South,9.2,-,N/A,,Scattered Clouds,180,2012-10-23 02:15:00
9:35 PM,67.1,61.9,83,29.91,10.0,South,6.9,-,N/A,,Scattered Clouds,190,2012-10-23 02:35:00
9:55 PM,67.3,61.7,82,29.91,10.0,South,9.2,-,N/A,,Clear,180,2012-10-23 02:55:00
10:15 PM,67.1,61.7,83,29.90,10.0,South,9.2,-,N/A,,Clear,180,2012-10-23 03:15:00
10:35 PM,66.4,61.0,83,29.90,10.0,South,9.2,-,N/A,,Clear,180,2012-10-23 03:35:00
10:55 PM,66.4,60.8,82,29.89,10.0,South,9.2,-,N/A,,Clear,180,2012-10-23 03:55:00
11:15 PM,65.8,60.8,84,29.89,10.0,South,9.2,-,N/A,,Clear,180,2012-10-23 04:15:00
11:35 PM,65.5,60.8,85,29.90,10.0,South,6.9,-,N/A,,Clear,180,2012-10-23 04:35:00
11:55 PM,64.4,60.8,88,29.90,10.0,South,8.1,-,N/A,,Clear,180,2012-10-23 04:55:00